This is the latest recevied weather packets stored in our database for station/object KD7CTY. If no packets are shown the sender has not sent any weather packets the latest 10 day(s).
| Time | Temp. | Humidity | Pressure | Rain* | Wind** | Luminosity | Snow |
|---|---|---|---|---|---|---|---|
| 1777601319 | 20.56° C | 58% | 1014.9 hPa | 0 mm | - | 39 W/m² | - |
| 1777601016 | 20.56° C | 56% | 1015.3 hPa | 0 mm | - | 39 W/m² | - |
| 1777600713 | 21.11° C | 57% | 1015 hPa | 0 mm | - | 41 W/m² | - |
| 1777600409 | 21.11° C | 56% | 1015.1 hPa | 0 mm | - | 98 W/m² | - |
| 1777600105 | 21.67° C | 55% | 1015 hPa | 0 mm | - | 117 W/m² | - |
| 1777599800 | 21.67° C | 55% | 1015 hPa | 0 mm | - | 141 W/m² | - |
| 1777599496 | 22.22° C | 53% | 1015 hPa | 0 mm | - | 158 W/m² | - |
| 1777599193 | 22.22° C | 52% | 1015 hPa | 0 mm | - | 52 W/m² | - |
| 1777598889 | 22.78° C | 51% | 1015 hPa | 0 mm | - | 58 W/m² | - |
| 1777598587 | 22.78° C | 52% | 1015.3 hPa | 0 mm | - | 203 W/m² | - |
| 1777598283 | 22.78° C | 50% | 1015.1 hPa | 0 mm | - | 222 W/m² | - |
| 1777597981 | 22.78° C | 53% | 1015 hPa | 0 mm | - | 242 W/m² | - |
| 1777597680 | 23.33° C | 51% | 1015.1 hPa | 0 mm | - | 261 W/m² | - |
| 1777597376 | 23.33° C | 51% | 1015.4 hPa | 0 mm | - | 268 W/m² | - |
| 1777597071 | 23.89° C | 50% | 1015.1 hPa | 0 mm | - | 291 W/m² | - |
| 1777596768 | 23.89° C | 51% | 1015.2 hPa | 0 mm | - | 309 W/m² | - |
| 1777596464 | 23.89° C | 49% | 1015.2 hPa | 0 mm | - | 332 W/m² | - |
| 1777596161 | 23.89° C | 49% | 1015.5 hPa | 0 mm | - | 351 W/m² | - |
| 1777595858 | 23.89° C | 47% | 1015.3 hPa | 0 mm | - | 356 W/m² | - |
| 1777595553 | 24.44° C | 46% | 1015.4 hPa | 0 mm | - | 390 W/m² | - |
| 1777595249 | 25° C | 43% | 1015.4 hPa | 0 mm | - | 409 W/m² | - |
| 1777594945 | 24.44° C | 43% | 1015.5 hPa | 0 mm | - | 423 W/m² | - |
| 1777594642 | 25° C | 43% | 1015.5 hPa | 0 mm | - | 438 W/m² | - |
| 1777594339 | 25° C | 44% | 1015.5 hPa | 0 mm | - | 442 W/m² | - |
| 1777594035 | 25° C | 39% | 1015.6 hPa | 0 mm | - | 462 W/m² | - |
* Rain latest hour (hover to see other rain measurements)
** Current wind speed in m/s (hover to see current wind gust speed)